�������l�o���
Date,Time,MP-1(��Sv/h),MP-2(��Sv/h),MP-3(��Sv/h),MP-4(��Sv/h),MP-5(��Sv/h),MP-6(��Sv/h),MP-7(��Sv/h),MP-8(��Sv/h),����,����(m/s),���J
2023/02/25,00:00,0.566,0.820,0.501,1.047,0.725,0.323,0.582,0.554,�k�k��,4.5,��
2023/02/25,00:10,0.566,0.817,0.504,1.046,0.728,0.325,0.584,0.554,�k�k��,5.3,��
2023/02/25,00:20,0.565,0.820,0.504,1.045,0.729,0.327,0.582,0.554,�k��,5.1,��
2023/02/25,00:30,0.565,0.820,0.502,1.046,0.728,0.323,0.583,0.553,�k��,5.8,��
2023/02/25,00:40,0.566,0.818,0.504,1.043,0.727,0.324,0.583,0.554,�k��,5.4,��
2023/02/25,00:50,0.564,0.817,0.502,1.046,0.726,0.324,0.583,0.554,�k��,6.9,��
2023/02/25,01:00,0.565,0.819,0.502,1.046,0.727,0.323,0.584,0.553,�k�k��,5.6,��
2023/02/25,01:10,0.566,0.818,0.502,1.046,0.728,0.324,0.585,0.552,�k��,8.0,��
2023/02/25,01:20,0.567,0.820,0.502,1.047,0.728,0.323,0.583,0.552,�k��,7.1,��
2023/02/25,01:30,0.567,0.821,0.504,1.047,0.728,0.324,0.582,0.555,�k��,6.5,��
2023/02/25,01:40,0.567,0.819,0.501,1.048,0.729,0.323,0.582,0.553,�k�k��,5.5,��
2023/02/25,01:50,0.565,0.819,0.502,1.044,0.728,0.323,0.583,0.554,�k��,6.3,��
2023/02/25,02:00,0.567,0.819,0.502,1.046,0.729,0.323,0.581,0.554,�k�k��,5.4,��
2023/02/25,02:10,0.564,0.818,0.503,1.046,0.726,0.323,0.583,0.552,�k��,4.5,��
2023/02/25,02:20,0.566,0.818,0.501,1.045,0.728,0.323,0.582,0.555,�k��,4.8,��
2023/02/25,02:30,0.564,0.818,0.502,1.047,0.729,0.323,0.582,0.554,�k��,5.9,��
2023/02/25,02:40,0.565,0.820,0.502,1.047,0.728,0.323,0.582,0.553,���k��,6.7,��
2023/02/25,02:50,0.564,0.816,0.503,1.046,0.729,0.324,0.583,0.555,���k��,8.6,��
2023/02/25,03:00,0.566,0.819,0.504,1.046,0.727,0.324,0.582,0.553,���k��,9.0,��
2023/02/25,03:10,0.565,0.819,0.503,1.045,0.727,0.323,0.583,0.552,���k��,8.6,��
2023/02/25,03:20,0.564,0.820,0.501,1.045,0.725,0.323,0.582,0.552,���k��,8.5,��
2023/02/25,03:30,0.565,0.821,0.504,1.045,0.725,0.323,0.582,0.554,���k��,8.0,��
2023/02/25,03:40,0.564,0.820,0.503,1.044,0.726,0.324,0.582,0.553,���k��,10.3,��
2023/02/25,03:50,0.564,0.817,0.502,1.045,0.727,0.323,0.584,0.554,���k��,9.3,��
2023/02/25,04:00,0.567,0.820,0.501,1.045,0.726,0.322,0.583,0.553,���k��,9.3,��
2023/02/25,04:10,0.567,0.821,0.503,1.046,0.727,0.323,0.582,0.551,���k��,9.7,��
2023/02/25,04:20,0.565,0.819,0.503,1.046,0.728,0.324,0.583,0.553,��,8.2,��
2023/02/25,04:30,0.565,0.818,0.501,1.046,0.727,0.323,0.584,0.553,��,5.7,��
2023/02/25,04:40,0.565,0.817,0.502,1.047,0.725,0.323,0.583,0.554,���k��,5.6,��
2023/02/25,04:50,0.565,0.818,0.500,1.047,0.728,0.323,0.584,0.555,���k��,4.8,��
2023/02/25,05:00,0.566,0.817,0.502,1.046,0.729,0.323,0.582,0.553,�k��,4.0,��
2023/02/25,05:10,0.565,0.818,0.502,1.045,0.726,0.323,0.582,0.553,�k��,6.2,��
2023/02/25,05:20,0.567,0.821,0.502,1.046,0.725,0.323,0.582,0.553,�k��,6.9,��
2023/02/25,05:30,0.566,0.820,0.502,1.046,0.729,0.324,0.583,0.554,�k��,4.6,��
2023/02/25,05:40,0.566,0.820,0.502,1.046,0.728,0.322,0.583,0.554,���k��,7.4,��
2023/02/25,05:50,0.565,0.817,0.504,1.046,0.726,0.322,0.583,0.555,���k��,8.1,��
2023/02/25,06:00,0.564,0.819,0.503,1.047,0.726,0.323,0.582,0.553,���k��,8.0,��
2023/02/25,06:10,0.565,0.819,0.500,1.045,0.726,0.323,0.583,0.554,���k��,6.4,��
2023/02/25,06:20,0.566,0.816,0.502,1.045,0.724,0.323,0.584,0.554,�k��,6.9,��
2023/02/25,06:30,0.564,0.816,0.502,1.047,0.728,0.324,0.582,0.554,�k��,4.9,��
2023/02/25,06:40,0.566,0.818,0.503,1.046,0.726,0.322,0.584,0.554,�k��,4.4,��
2023/02/25,06:50,0.566,0.818,0.502,1.044,0.727,0.323,0.582,0.552,�k��,4.2,��
2023/02/25,07:00,0.566,0.818,0.502,1.045,0.725,0.323,0.584,0.553,���k��,3.2,��
2023/02/25,07:10,0.566,0.820,0.502,1.046,0.727,0.322,0.582,0.554,�k��,3.7,��
2023/02/25,07:20,0.566,0.820,0.501,1.047,0.727,0.324,0.583,0.554,�k��,3.0,��
2023/02/25,07:30,0.565,0.819,0.502,1.046,0.729,0.324,0.584,0.553,�k��,3.9,��
2023/02/25,07:40,0.566,0.820,0.502,1.046,0.724,0.324,0.584,0.556,�k��,3.9,��
2023/02/25,07:50,0.565,0.822,0.502,1.049,0.727,0.323,0.584,0.553,�k�k��,4.3,��
2023/02/25,08:00,0.567,0.820,0.502,1.048,0.728,0.323,0.582,0.554,�k��,4.3,��
2023/02/25,08:10,0.565,0.824,0.502,1.048,0.728,0.323,0.583,0.553,�k�k��,5.2,��
2023/02/25,08:20,0.566,0.820,0.501,1.046,0.728,0.323,0.584,0.554,�k��,4.7,��
2023/02/25,08:30,0.565,0.821,0.504,1.047,0.726,0.324,0.584,0.554,�k��,4.2,��
2023/02/25,08:40,0.566,0.820,0.501,1.046,0.727,0.325,0.584,0.554,�k��,6.2,��
2023/02/25,08:50,0.565,0.820,0.503,1.047,0.728,0.324,0.582,0.554,�k��,6.5,��
2023/02/25,09:00,0.568,0.818,0.503,1.047,0.727,0.323,0.580,0.555,�k��,6.4,��
2023/02/25,09:10,0.566,0.817,0.502,1.047,0.728,0.324,0.582,0.554,�k��,7.9,��
2023/02/25,09:20,0.567,0.818,0.501,1.048,0.731,0.324,0.581,0.555,�k��,8.2,��
2023/02/25,09:30,0.567,0.818,0.501,1.045,0.731,0.323,0.583,0.555,���k��,8.1,��
2023/02/25,09:40,0.567,0.819,0.503,1.046,0.730,0.322,0.582,0.554,���k��,7.4,��
2023/02/25,09:50,0.566,0.819,0.504,1.047,0.729,0.323,0.583,0.555,���k��,5.8,��
2023/02/25,10:00,0.567,0.819,0.502,1.046,0.729,0.324,0.581,0.554,���k��,6.9,��
2023/02/25,10:10,0.569,0.819,0.504,1.046,0.729,0.322,0.581,0.554,���k��,7.2,��
2023/02/25,10:20,0.566,0.818,0.503,1.046,0.731,0.322,0.581,0.555,�k��,6.8,�L
2023/02/25,10:30,0.566,0.818,0.503,1.047,0.729,0.322,0.582,0.556,�k��,5.4,��
2023/02/25,10:40,0.567,0.818,0.502,1.046,0.729,0.322,0.582,0.554,�k�k��,5.5,��
2023/02/25,10:50,0.566,0.820,0.502,1.047,0.728,0.324,0.581,0.556,�k��,6.9,�L
2023/02/25,11:00,0.567,0.819,0.504,1.051,0.730,0.322,0.581,0.553,�k��,6.4,�L
2023/02/25,11:10,0.565,0.818,0.503,1.048,0.731,0.324,0.582,0.557,�k��,4.4,��
2023/02/25,11:20,0.566,0.817,0.503,1.048,0.729,0.323,0.580,0.557,���k��,5.2,��
2023/02/25,11:30,0.566,0.818,0.502,1.047,0.729,0.324,0.583,0.553,�k�k��,5.3,��
2023/02/25,11:40,0.567,0.818,0.502,1.049,0.730,0.324,0.580,0.554,�k��,3.0,��
2023/02/25,11:50,0.567,0.818,0.503,1.048,0.732,0.325,0.583,0.555,�k��,4.8,��
2023/02/25,12:00,0.567,0.818,0.503,1.049,0.732,0.323,0.581,0.554,�k�k��,5.0,��
2023/02/25,12:10,0.569,0.819,0.503,1.048,0.731,0.323,0.581,0.556,���k��,3.5,��
2023/02/25,12:20,0.568,0.820,0.504,1.048,0.729,0.323,0.581,0.555,���k��,6.8,��
2023/02/25,12:30,0.568,0.819,0.502,1.050,0.729,0.324,0.583,0.553,��,8.1,�L
2023/02/25,12:40,0.568,0.820,0.503,1.049,0.728,0.323,0.582,0.552,��,8.9,��
2023/02/25,12:50,0.569,0.819,0.503,1.048,0.728,0.324,0.583,0.554,��,10.2,��
2023/02/25,13:00,0.568,0.820,0.503,1.051,0.729,0.325,0.582,0.554,���k��,6.0,��
2023/02/25,13:10,0.567,0.821,0.504,1.048,0.728,0.324,0.581,0.556,���k��,7.4,��
2023/02/25,13:20,0.566,0.823,0.503,1.049,0.726,0.322,0.581,0.554,���k��,5.7,��
2023/02/25,13:30,0.566,0.821,0.503,1.048,0.729,0.323,0.582,0.555,��,6.3,��
2023/02/25,13:40,0.567,0.820,0.502,1.049,0.728,0.325,0.583,0.553,���k��,8.5,��
2023/02/25,13:50,0.568,0.821,0.502,1.050,0.729,0.325,0.582,0.554,���k��,8.9,��
2023/02/25,14:00,0.565,0.820,0.502,1.049,0.729,0.323,0.582,0.553,���k��,5.9,��
2023/02/25,14:10,0.566,0.821,0.501,1.050,0.730,0.324,0.583,0.553,��,6.6,��
2023/02/25,14:20,0.568,0.820,0.501,1.049,0.730,0.325,0.583,0.556,���k��,7.7,��
2023/02/25,14:30,0.567,0.821,0.502,1.050,0.728,0.323,0.583,0.554,��,7.1,��
2023/02/25,14:40,0.566,0.820,0.503,1.051,0.728,0.323,0.582,0.554,��,6.2,��
2023/02/25,14:50,0.566,0.819,0.502,1.048,0.730,0.323,0.582,0.554,��,6.1,��
2023/02/25,15:00,0.566,0.820,0.503,1.052,0.730,0.324,0.581,0.554,���k��,4.9,��
2023/02/25,15:10,0.566,0.821,0.504,1.049,0.730,0.324,0.581,0.554,���k��,8.3,��
2023/02/25,15:20,0.563,0.822,0.504,1.049,0.731,0.324,0.582,0.554,���k��,9.3,��
2023/02/25,15:30,0.566,0.821,0.504,1.051,0.730,0.323,0.582,0.553,���k��,6.7,��
2023/02/25,15:40,0.567,0.819,0.503,1.048,0.729,0.324,0.583,0.555,�k��,5.3,��
2023/02/25,15:50,0.566,0.821,0.503,1.052,0.730,0.323,0.583,0.554,�k�k��,8.9,��
2023/02/25,16:00,0.566,0.820,0.503,1.051,0.730,0.324,0.582,0.555,�k�k��,7.8,��
2023/02/25,16:10,0.566,0.821,0.503,1.052,0.730,0.325,0.582,0.557,�k��,8.2,��
2023/02/25,16:20,0.567,0.820,0.504,1.048,0.730,0.323,0.584,0.555,�k��,9.4,��
2023/02/25,16:30,0.565,0.821,0.503,1.049,0.731,0.323,0.584,0.556,�k��,6.9,��
2023/02/25,16:40,0.567,0.821,0.502,1.050,0.731,0.323,0.584,0.555,�k��,9.0,��
2023/02/25,16:50,0.567,0.824,0.504,1.051,0.731,0.324,0.584,0.555,�k��,10.9,��
2023/02/25,17:00,0.565,0.822,0.503,1.050,0.732,0.324,0.583,0.557,�k��,9.7,��
2023/02/25,17:10,0.566,0.822,0.503,1.050,0.731,0.323,0.584,0.557,�k��,9.8,��
2023/02/25,17:20,0.567,0.822,0.502,1.050,0.732,0.323,0.584,0.554,�k��,9.8,��
2023/02/25,17:30,0.565,0.821,0.503,1.050,0.731,0.323,0.583,0.555,�k��,9.3,��
2023/02/25,17:40,0.565,0.822,0.503,1.050,0.731,0.322,0.584,0.555,�k��,10.2,��
2023/02/25,17:50,0.565,0.824,0.502,1.050,0.731,0.321,0.583,0.554,�k��,9.0,��
2023/02/25,18:00,0.565,0.823,0.501,1.050,0.732,0.322,0.583,0.554,�k��,10.0,��
2023/02/25,18:10,0.566,0.823,0.501,1.050,0.733,0.323,0.582,0.555,�k��,8.0,��
2023/02/25,18:20,0.566,0.821,0.502,1.048,0.732,0.322,0.583,0.554,�k��,9.9,��
2023/02/25,18:30,0.567,0.823,0.503,1.051,0.731,0.321,0.583,0.554,�k��,9.0,��
2023/02/25,18:40,0.565,0.823,0.502,1.051,0.733,0.322,0.582,0.554,�k�k��,9.2,��
2023/02/25,18:50,0.565,0.823,0.501,1.049,0.730,0.321,0.582,0.555,�k�k��,6.6,��
2023/02/25,19:00,0.567,0.823,0.501,1.051,0.732,0.321,0.583,0.554,�k�k��,7.3,��
2023/02/25,19:10,0.564,0.824,0.502,1.048,0.731,0.322,0.583,0.555,�k�k��,7.8,��
2023/02/25,19:20,0.565,0.823,0.501,1.050,0.730,0.323,0.582,0.554,�k�k��,6.6,��
2023/02/25,19:30,0.566,0.824,0.503,1.050,0.733,0.321,0.582,0.555,�k,6.3,��
2023/02/25,19:40,0.564,0.820,0.502,1.048,0.730,0.322,0.582,0.555,�k�k��,6.2,��
2023/02/25,19:50,0.564,0.824,0.504,1.049,0.732,0.322,0.583,0.554,�k�k��,6.0,��
2023/02/25,20:00,0.565,0.820,0.502,1.049,0.729,0.322,0.581,0.554,�k�k��,3.9,��
2023/02/25,20:10,0.565,0.821,0.502,1.049,0.731,0.322,0.582,0.554,�k�k��,4.6,��
2023/02/25,20:20,0.565,0.823,0.502,1.048,0.732,0.322,0.581,0.554,�k�k��,3.7,��
2023/02/25,20:30,0.564,0.822,0.503,1.049,0.731,0.322,0.582,0.553,�k,4.4,��
2023/02/25,20:40,0.563,0.824,0.501,1.049,0.728,0.321,0.583,0.553,�k�k��,4.9,��
2023/02/25,20:50,0.564,0.823,0.501,1.051,0.730,0.322,0.584,0.554,�k�k��,5.2,��
2023/02/25,21:00,0.566,0.823,0.500,1.049,0.730,0.321,0.582,0.554,�k,6.1,��
2023/02/25,21:10,0.564,0.823,0.502,1.049,0.731,0.322,0.581,0.554,�k�k��,5.5,��
2023/02/25,21:20,0.564,0.823,0.502,1.048,0.730,0.322,0.581,0.554,�k��,7.1,��
2023/02/25,21:30,0.562,0.822,0.501,1.051,0.730,0.323,0.582,0.554,�k��,4.6,��
2023/02/25,21:40,0.564,0.822,0.502,1.048,0.730,0.322,0.583,0.553,�k�k��,4.9,��
2023/02/25,21:50,0.564,0.822,0.501,1.048,0.730,0.321,0.582,0.553,�k�k��,3.7,��
2023/02/25,22:00,0.565,0.823,0.503,1.049,0.730,0.322,0.582,0.553,�k�k��,2.3,��
2023/02/25,22:10,0.564,0.822,0.502,1.049,0.732,0.322,0.582,0.553,�k��,1.9,��
2023/02/25,22:20,0.564,0.824,0.503,1.047,0.731,0.321,0.582,0.555,�k��,1.9,��
2023/02/25,22:30,0.563,0.822,0.502,1.046,0.732,0.322,0.582,0.554,�k�k��,3.2,��
2023/02/25,22:40,0.564,0.823,0.501,1.049,0.730,0.322,0.582,0.553,�k�k��,3.7,��
2023/02/25,22:50,0.564,0.823,0.502,1.050,0.730,0.321,0.581,0.552,�k�k��,4.6,��
2023/02/25,23:00,0.565,0.822,0.501,1.049,0.731,0.321,0.581,0.553,�k�k��,5.8,��
2023/02/25,23:10,0.565,0.821,0.502,1.049,0.729,0.323,0.582,0.553,�k�k��,6.9,��
2023/02/25,23:20,0.564,0.822,0.501,1.050,0.729,0.322,0.583,0.554,�k�k��,7.9,��
2023/02/25,23:30,0.563,0.822,0.502,1.049,0.729,0.321,0.581,0.552,�k�k��,6.2,��
2023/02/25,23:40,0.565,0.821,0.500,1.050,0.729,0.321,0.582,0.553,�k�k��,7.2,��
2023/02/25,23:50,0.564,0.823,0.500,1.049,0.730,0.321,0.581,0.553,�k��,6.1,��
